Time,TemperatureF,DewpointF,PressureIn,WindDirection,WindDirectionDegrees,WindSpeedMPH,WindSpeedGustMPH,Humidity,HourlyPrecipIn,Conditions,Clouds,dailyrainin,SoftwareType,DateUTC
2013-05-30 09:38:00,78.6,65.4,30.06,SW,232,3.0,3.0,64,0.00,CLR,CLR,0.44,WeatherDisplay:10.36,2013-05-30 13:38:00,
2013-05-30 09:43:00,79.0,65.8,30.06,SW,229,0.0,0.0,64,0.00,RA,RA,0.44,WeatherDisplay:10.36,2013-05-30 13:43:00,
2013-05-30 09:48:00,79.4,65.2,30.05,SW,229,0.0,0.0,62,0.00,RA,RA,0.44,WeatherDisplay:10.36,2013-05-30 13:48:00,
2013-05-30 09:53:00,79.6,65.4,30.05,SW,229,0.0,0.0,62,0.00,CLR,CLR,0.44,WeatherDisplay:10.36,2013-05-30 13:53:00,
2013-05-30 09:58:00,79.8,64.2,30.05,SW,217,0.0,0.0,59,0.00,CLR,CLR,0.44,WeatherDisplay:10.36,2013-05-30 13:58:00,
2013-05-30 10:03:00,80.3,64.7,30.05,SW,226,1.0,0.0,59,0.00,CLR,CLR,0.44,WeatherDisplay:10.36,2013-05-30 14:03:00,
2013-05-30 10:08:00,80.7,64.1,30.05,WSW,237,3.5,3.5,57,0.00,CLR,CLR,0.44,WeatherDisplay:10.36,2013-05-30 14:08:00,
2013-05-30 10:13:00,81.1,64.4,30.05,SW,236,1.2,1.2,57,0.00,CLR,CLR,0.44,WeatherDisplay:10.36,2013-05-30 14:13:00,
2013-05-30 10:19:00,81.2,64.0,30.05,WSW,245,2.3,2.3,56,0.00,CLR,CLR,0.44,WeatherDisplay:10.36,2013-05-30 14:19:00,
2013-05-30 10:24:00,81.6,64.4,30.05,WSW,245,1.0,1.0,56,0.00,CLR,CLR,0.44,WeatherDisplay:10.36,2013-05-30 14:24:00,
2013-05-30 10:29:00,82.0,64.2,30.05,SSW,204,3.5,3.5,55,0.00,CLR,CLR,0.44,WeatherDisplay:10.36,2013-05-30 14:29:00,
2013-05-30 10:34:00,82.4,63.5,30.05,WSW,257,2.3,2.3,53,0.00,CLR,CLR,0.44,WeatherDisplay:10.36,2013-05-30 14:34:00,
2013-05-30 10:39:00,82.6,64.3,30.05,WSW,258,1.2,0.0,54,0.00,CLR,CLR,0.44,WeatherDisplay:10.36,2013-05-30 14:39:00,
2013-05-30 10:44:00,82.8,64.5,30.05,WSW,258,0.0,0.0,54,0.00,CLR,CLR,0.44,WeatherDisplay:10.36,2013-05-30 14:44:00,
2013-05-30 10:49:00,83.0,65.2,30.05,WSW,257,1.2,0.0,55,0.00,CLR,CLR,0.44,WeatherDisplay:10.36,2013-05-30 14:49:00,
2013-05-30 10:55:00,83.4,63.4,30.05,WSW,256,0.0,3.0,51,0.00,CLR,CLR,0.44,WeatherDisplay:10.36,2013-05-30 14:55:00,
2013-05-30 11:00:00,83.9,63.9,30.05,WSW,238,0.0,3.0,51,0.00,CLR,CLR,0.44,WeatherDisplay:10.36,2013-05-30 15:00:00,
2013-05-30 11:05:00,84.3,64.2,30.05,SSW,210,0.0,1.0,51,0.00,CLR,CLR,0.44,WeatherDisplay:10.36,2013-05-30 15:05:00,
2013-05-30 11:10:00,84.5,64.4,30.05,SSW,200,0.0,1.0,51,0.00,CLR,CLR,0.44,WeatherDisplay:10.36,2013-05-30 15:10:00,
2013-05-30 11:15:00,84.9,63.0,30.05,SSW,200,0.0,3.0,48,0.00,CLR,CLR,0.44,WeatherDisplay:10.36,2013-05-30 15:15:00,
2013-05-30 11:20:00,85.4,61.7,30.05,SSW,200,0.0,0.0,45,0.00,CLR,CLR,0.44,WeatherDisplay:10.36,2013-05-30 15:20:00,
2013-05-30 11:25:00,85.9,63.3,30.05,SSW,200,0.0,0.0,47,0.00,CLR,CLR,0.44,WeatherDisplay:10.36,2013-05-30 15:25:00,
2013-05-30 11:30:00,86.3,63.1,30.05,SW,219,0.0,2.0,46,0.00,CLR,CLR,0.44,WeatherDisplay:10.36,2013-05-30 15:30:00,
2013-05-30 11:35:00,86.7,62.2,30.06,South,181,3.5,3.5,44,0.00,CLR,CLR,0.44,WeatherDisplay:10.36,2013-05-30 15:35:00,
2013-05-30 11:40:00,87.2,61.3,30.05,SW,219,0.0,0.0,42,0.00,CLR,CLR,0.44,WeatherDisplay:10.36,2013-05-30 15:40:00,
2013-05-30 11:45:00,87.4,62.2,30.05,SW,219,0.0,0.0,43,0.00,CLR,CLR,0.44,WeatherDisplay:10.36,2013-05-30 15:45:00,
2013-05-30 11:50:00,87.6,62.3,30.05,SW,219,0.0,0.0,43,0.00,CLR,CLR,0.44,WeatherDisplay:10.36,2013-05-30 15:50:00,
2013-05-30 11:55:00,88.2,63.5,30.05,SSE,156,1.0,0.0,44,0.00,CLR,CLR,0.44,WeatherDisplay:10.36,2013-05-30 15:55:00,
2013-05-30 12:01:00,88.6,62.6,30.05,SSW,207,1.2,0.0,42,0.00,CLR,CLR,0.44,WeatherDisplay:10.36,2013-05-30 16:01:00,
2013-05-30 12:06:00,88.8,62.7,30.05,SSW,207,0.0,0.0,42,0.00,CLR,CLR,0.44,WeatherDisplay:10.36,2013-05-30 16:06:00,
2013-05-30 12:11:00,89.3,63.9,30.05,SW,229,2.0,2.0,43,0.00,CLR,CLR,0.44,WeatherDisplay:10.36,2013-05-30 16:11:00,
2013-05-30 12:16:00,89.7,62.9,30.05,South,190,0.0,0.3,41,0.00,CLR,CLR,0.44,WeatherDisplay:10.36,2013-05-30 16:16:00,
2013-05-30 12:21:00,89.9,63.7,30.05,SSW,195,0.0,0.0,42,0.00,CLR,CLR,0.44,WeatherDisplay:10.36,2013-05-30 16:21:00,
2013-05-30 12:26:00,90.1,62.5,30.05,WNW,288,2.3,0.0,40,0.00,CLR,CLR,0.44,WeatherDisplay:10.36,2013-05-30 16:26:00,
2013-05-30 12:31:00,90.3,62.7,30.05,SW,229,4.0,4.0,40,0.00,CLR,CLR,0.44,WeatherDisplay:10.36,2013-05-30 16:31:00,
2013-05-30 12:36:00,90.5,62.9,30.05,WSW,246,3.5,3.5,40,0.00,CLR,CLR,0.44,WeatherDisplay:10.36,2013-05-30 16:36:00,
2013-05-30 12:41:00,90.7,62.3,30.05,SW,221,1.2,1.2,39,0.00,CLR,CLR,0.44,WeatherDisplay:10.36,2013-05-30 16:41:00,
2013-05-30 12:46:00,91.0,62.6,30.05,SW,232,2.3,0.0,39,0.00,CLR,CLR,0.44,WeatherDisplay:10.36,2013-05-30 16:46:00,
2013-05-30 12:51:00,91.4,62.2,30.05,West,276,3.5,3.5,38,0.00,CLR,CLR,0.44,WeatherDisplay:10.36,2013-05-30 16:51:00,
2013-05-30 12:56:00,91.6,63.1,30.05,West,281,1.0,1.0,39,0.00,CLR,CLR,0.44,WeatherDisplay:10.36,2013-05-30 16:56:00,
2013-05-30 13:01:00,91.4,60.7,30.05,SW,231,6.9,6.9,36,0.00,CLR,CLR,0.44,WeatherDisplay:10.36,2013-05-30 17:01:00,
2013-05-30 13:07:00,91.2,63.5,30.04,SSW,205,1.2,1.2,40,0.00,CLR,CLR,0.44,WeatherDisplay:10.36,2013-05-30 17:07:00,
2013-05-30 13:12:00,91.2,61.3,30.04,WSW,248,5.0,5.0,37,0.00,CLR,CLR,0.44,WeatherDisplay:10.36,2013-05-30 17:12:00,
2013-05-30 13:17:00,91.6,61.6,30.04,SW,236,2.3,2.3,37,0.00,CLR,CLR,0.44,WeatherDisplay:10.36,2013-05-30 17:17:00,
2013-05-30 13:22:00,91.8,61.0,30.04,WSW,237,3.5,3.5,36,0.00,CLR,CLR,0.44,WeatherDisplay:10.36,2013-05-30 17:22:00,
2013-05-30 13:27:00,92.1,58.0,30.04,SW,221,4.6,4.6,32,0.00,CLR,CLR,0.44,WeatherDisplay:10.36,2013-05-30 17:27:00,
2013-05-30 13:32:00,92.3,59.0,30.03,SW,214,5.8,5.8,33,0.00,CLR,CLR,0.44,WeatherDisplay:10.36,2013-05-30 17:32:00,
2013-05-30 13:38:00,92.5,60.0,30.03,WSW,248,1.0,1.0,34,0.00,CLR,CLR,0.44,WeatherDisplay:10.36,2013-05-30 17:38:00,
2013-05-30 13:43:00,92.5,60.0,30.03,West,276,1.0,0.0,34,0.00,CLR,CLR,0.44,WeatherDisplay:10.36,2013-05-30 17:43:00,
2013-05-30 13:48:00,92.3,59.9,30.03,NW,319,1.2,1.7,34,0.00,CLR,CLR,0.44,WeatherDisplay:10.36,2013-05-30 17:48:00,
2013-05-30 13:53:00,92.3,58.2,30.03,SW,214,1.2,0.0,32,0.00,CLR,CLR,0.44,WeatherDisplay:10.36,2013-05-30 17:53:00,
2013-05-30 13:58:00,92.5,60.0,30.03,SSW,207,1.2,0.0,34,0.00,CLR,CLR,0.44,WeatherDisplay:10.36,2013-05-30 17:58:00,
2013-05-30 14:03:00,93.2,59.0,30.03,SSW,208,3.0,3.0,32,0.00,CLR,CLR,0.44,WeatherDisplay:10.36,2013-05-30 18:03:00,
2013-05-30 14:08:00,93.6,61.0,30.03,WSW,254,2.3,0.0,34,0.00,CLR,CLR,0.44,WeatherDisplay:10.36,2013-05-30 18:08:00,
2013-05-30 14:13:00,93.4,59.1,30.03,South,188,3.5,3.5,32,0.00,CLR,CLR,0.44,WeatherDisplay:10.36,2013-05-30 18:13:00,
2013-05-30 14:18:00,93.4,60.0,30.03,SSW,206,1.2,1.2,33,0.00,CLR,CLR,0.44,WeatherDisplay:10.36,2013-05-30 18:18:00,
2013-05-30 14:24:00,92.7,59.4,30.03,SE,145,1.2,1.2,33,0.00,CLR,CLR,0.44,WeatherDisplay:10.36,2013-05-30 18:24:00,
2013-05-30 14:29:00,92.3,58.2,30.02,ESE,113,3.5,3.5,32,0.00,CLR,CLR,0.44,WeatherDisplay:10.36,2013-05-30 18:29:00,
2013-05-30 14:34:00,92.3,58.2,30.03,SSE,152,2.3,2.3,32,0.00,CLR,CLR,0.44,WeatherDisplay:10.36,2013-05-30 18:34:00,
2013-05-30 14:39:00,92.5,59.2,30.02,WSW,245,1.2,1.2,33,0.00,CLR,CLR,0.44,WeatherDisplay:10.36,2013-05-30 18:39:00,
2013-05-30 14:45:00,92.5,58.4,30.02,SSW,196,0.0,3.0,32,0.00,CLR,CLR,0.44,WeatherDisplay:10.36,2013-05-30 18:45:00,
2013-05-30 14:50:00,92.9,59.6,30.02,South,180,2.0,4.0,33,0.00,CLR,CLR,0.44,WeatherDisplay:10.36,2013-05-30 18:50:00,
2013-05-30 14:55:00,93.4,59.1,30.02,SW,226,1.0,6.0,32,0.00,CLR,CLR,0.44,WeatherDisplay:10.36,2013-05-30 18:55:00,
2013-05-30 15:00:00,93.4,59.1,30.02,SW,236,0.0,3.0,32,0.00,CLR,CLR,0.44,WeatherDisplay:10.36,2013-05-30 19:00:00,
2013-05-30 15:05:00,93.6,58.4,30.01,SW,236,2.0,6.0,31,0.00,CLR,CLR,0.44,WeatherDisplay:10.36,2013-05-30 19:05:00,
2013-05-30 15:10:00,93.8,59.5,30.01,SSW,199,3.0,7.0,32,0.00,CLR,CLR,0.44,WeatherDisplay:10.36,2013-05-30 19:10:00,
2013-05-30 15:15:00,93.8,57.7,30.01,SW,215,0.0,2.0,30,0.00,CLR,CLR,0.44,WeatherDisplay:10.36,2013-05-30 19:15:00,
2013-05-30 15:20:00,93.6,58.4,30.01,SE,134,2.3,2.3,31,0.00,CLR,CLR,0.44,WeatherDisplay:10.36,2013-05-30 19:20:00,
2013-05-30 15:26:00,93.2,59.0,30.01,WSW,243,3.5,3.5,32,0.00,CLR,CLR,0.44,WeatherDisplay:10.36,2013-05-30 19:26:00,
2013-05-30 15:31:00,93.4,59.1,30.01,SSW,211,1.2,0.0,32,0.00,CLR,CLR,0.44,WeatherDisplay:10.36,2013-05-30 19:31:00,
2013-05-30 15:36:00,93.6,58.4,30.01,West,269,3.0,3.0,31,0.00,CLR,CLR,0.44,WeatherDisplay:10.36,2013-05-30 19:36:00,
2013-05-30 15:41:00,93.6,59.3,30.01,SW,232,3.5,3.5,32,0.00,CLR,CLR,0.44,WeatherDisplay:10.36,2013-05-30 19:41:00,
2013-05-30 15:46:00,93.4,60.8,30.00,SW,233,1.2,1.2,34,0.00,CLR,CLR,0.44,WeatherDisplay:10.36,2013-05-30 19:46:00,
2013-05-30 15:51:00,93.4,59.1,30.00,WSW,258,6.0,6.0,32,0.00,CLR,CLR,0.44,WeatherDisplay:10.36,2013-05-30 19:51:00,
2013-05-30 15:56:00,93.2,58.1,30.00,SSW,207,4.6,4.6,31,0.00,CLR,CLR,0.44,WeatherDisplay:10.36,2013-05-30 19:56:00,
2013-05-30 16:01:00,93.2,59.8,30.00,WSW,240,3.5,0.0,33,0.00,CLR,CLR,0.44,WeatherDisplay:10.36,2013-05-30 20:01:00,
2013-05-30 16:07:00,93.4,60.8,30.00,WSW,252,0.0,0.0,34,0.00,CLR,CLR,0.44,WeatherDisplay:10.36,2013-05-30 20:07:00,
2013-05-30 16:12:00,93.6,59.3,30.00,South,174,1.2,1.2,32,0.00,CLR,CLR,0.44,WeatherDisplay:10.36,2013-05-30 20:12:00,
2013-05-30 16:17:00,93.4,60.0,30.00,WSW,256,3.5,3.5,33,0.00,CLR,CLR,0.44,WeatherDisplay:10.36,2013-05-30 20:17:00,
2013-05-30 16:23:00,93.4,60.8,30.00,SW,229,1.2,1.2,34,0.00,CLR,CLR,0.44,WeatherDisplay:10.36,2013-05-30 20:23:00,
2013-05-30 16:28:00,93.2,60.7,30.00,SE,124,2.0,2.0,34,0.00,CLR,CLR,0.44,WeatherDisplay:10.36,2013-05-30 20:28:00,
2013-05-30 16:35:00,92.9,61.2,30.00,WSW,255,1.2,0.0,35,0.00,CLR,CLR,0.44,WeatherDisplay:10.36,2013-05-30 20:35:00,
2013-05-30 16:40:00,93.2,60.7,30.00,SW,231,0.0,0.0,34,0.00,CLR,CLR,0.44,WeatherDisplay:10.36,2013-05-30 20:40:00,
2013-05-30 16:46:00,93.4,60.8,30.00,SSW,193,2.3,2.3,34,0.00,CLR,CLR,0.44,WeatherDisplay:10.36,2013-05-30 20:46:00,
2013-05-30 16:52:00,92.7,60.2,30.00,SW,225,3.5,3.5,34,0.00,CLR,CLR,0.44,WeatherDisplay:10.36,2013-05-30 20:52:00,
2013-05-30 16:57:00,92.5,63.2,30.00,SW,227,0.0,0.0,38,0.00,CLR,CLR,0.44,WeatherDisplay:10.36,2013-05-30 20:57:00,
2013-05-30 17:02:00,92.5,61.7,30.00,SW,236,1.2,0.0,36,0.00,CLR,CLR,0.44,WeatherDisplay:10.36,2013-05-30 21:02:00,
2013-05-30 17:08:00,92.7,61.0,30.00,WSW,241,3.5,3.5,35,0.00,CLR,CLR,0.44,WeatherDisplay:10.36,2013-05-30 21:08:00,
2013-05-30 17:13:00,92.9,61.2,30.00,WSW,250,1.2,0.0,35,0.00,CLR,CLR,0.44,WeatherDisplay:10.36,2013-05-30 21:13:00,
2013-05-30 17:18:00,92.9,60.4,30.00,SSW,210,4.0,4.0,34,0.00,CLR,CLR,0.44,WeatherDisplay:10.36,2013-05-30 21:18:00,
2013-05-30 17:23:00,92.7,60.2,30.00,SSE,156,2.3,2.3,34,0.00,CLR,CLR,0.44,WeatherDisplay:10.36,2013-05-30 21:23:00,
2013-05-30 17:29:00,92.5,61.7,30.00,SSW,205,0.0,0.2,36,0.00,CLR,CLR,0.44,WeatherDisplay:10.36,2013-05-30 21:29:00,
2013-05-30 17:34:00,92.3,61.5,30.00,SW,217,3.0,3.0,36,0.00,CLR,CLR,0.44,WeatherDisplay:10.36,2013-05-30 21:34:00,
2013-05-30 17:39:00,92.3,61.5,30.00,SSW,211,0.0,0.0,36,0.00,CLR,CLR,0.44,WeatherDisplay:10.36,2013-05-30 21:39:00,
2013-05-30 17:44:00,92.3,60.7,30.00,SW,216,4.6,4.6,35,0.00,CLR,CLR,0.44,WeatherDisplay:10.36,2013-05-30 21:44:00,
2013-05-30 17:50:00,92.5,60.9,30.00,South,189,2.3,2.3,35,0.00,CLR,CLR,0.44,WeatherDisplay:10.36,2013-05-30 21:50:00,
2013-05-30 17:55:00,92.5,60.9,30.00,SW,233,3.5,3.5,35,0.00,CLR,CLR,0.44,WeatherDisplay:10.36,2013-05-30 21:55:00,
2013-05-30 18:01:00,92.5,59.2,30.00,SW,224,4.0,4.0,33,0.00,CLR,CLR,0.44,WeatherDisplay:10.36,2013-05-30 22:01:00,
2013-05-30 18:06:00,91.8,61.0,29.99,SW,224,0.0,0.0,36,0.00,CLR,CLR,0.44,WeatherDisplay:10.36,2013-05-30 22:06:00,
2013-05-30 18:12:00,91.2,59.7,29.99,SSW,208,1.2,1.2,35,0.00,CLR,CLR,0.44,WeatherDisplay:10.36,2013-05-30 22:12:00,
2013-05-30 18:17:00,90.7,60.1,29.99,WSW,245,2.3,2.3,36,0.00,CLR,CLR,0.44,WeatherDisplay:10.36,2013-05-30 22:17:00,
2013-05-30 18:22:00,90.5,60.7,29.99,SW,225,2.3,0.0,37,0.00,CLR,CLR,0.44,WeatherDisplay:10.36,2013-05-30 22:22:00,
2013-05-30 18:27:00,90.1,61.1,29.99,SW,225,0.0,0.0,38,0.00,CLR,CLR,0.44,WeatherDisplay:10.36,2013-05-30 22:27:00,
2013-05-30 18:32:00,89.9,60.9,29.99,SW,225,1.0,0.0,38,0.00,CLR,CLR,0.44,WeatherDisplay:10.36,2013-05-30 22:32:00,
2013-05-30 18:37:00,89.5,60.5,29.99,SW,229,0.0,0.0,38,0.00,CLR,CLR,0.44,WeatherDisplay:10.36,2013-05-30 22:37:00,
2013-05-30 18:42:00,89.3,61.8,29.99,SW,232,0.0,0.0,40,0.00,CLR,CLR,0.44,WeatherDisplay:10.36,2013-05-30 22:42:00,
2013-05-30 18:48:00,89.0,61.5,29.99,WSW,256,1.2,0.0,40,0.00,CLR,CLR,0.44,WeatherDisplay:10.36,2013-05-30 22:48:00,
2013-05-30 18:53:00,88.8,61.4,29.99,West,259,1.2,0.0,40,0.00,CLR,CLR,0.44,WeatherDisplay:10.36,2013-05-30 22:53:00,
2013-05-30 18:58:00,88.8,63.4,29.99,West,259,1.2,1.2,43,0.00,CLR,CLR,0.44,WeatherDisplay:10.36,2013-05-30 22:58:00,
2013-05-30 19:07:00,88.4,61.7,29.99,West,259,0.0,0.0,41,0.00,CLR,CLR,0.44,WeatherDisplay:10.36,2013-05-30 23:07:00,
2013-05-30 19:12:00,88.2,62.2,30.00,West,259,0.0,0.0,42,0.00,CLR,CLR,0.44,WeatherDisplay:10.36,2013-05-30 23:12:00,
2013-05-30 19:17:00,88.0,62.7,29.99,WSW,255,1.2,1.2,43,0.00,CLR,CLR,0.44,WeatherDisplay:10.36,2013-05-30 23:17:00,
2013-05-30 19:26:00,87.4,62.8,30.00,WSW,251,0.0,0.0,44,0.00,CLR,CLR,0.44,WeatherDisplay:10.36,2013-05-30 23:26:00,
2013-05-30 19:31:00,87.2,62.6,30.00,WSW,251,0.0,0.0,44,0.00,CLR,CLR,0.44,WeatherDisplay:10.36,2013-05-30 23:31:00,
2013-05-30 19:36:00,86.7,62.2,30.00,WSW,249,2.3,2.3,44,0.00,CLR,CLR,0.44,WeatherDisplay:10.36,2013-05-30 23:36:00,
2013-05-30 19:41:00,86.5,62.0,30.00,WSW,249,0.0,0.0,44,0.00,CLR,CLR,0.44,WeatherDisplay:10.36,2013-05-30 23:41:00,
2013-05-30 19:46:00,86.3,62.5,30.00,WSW,249,0.0,0.0,45,0.00,CLR,CLR,0.44,WeatherDisplay:10.36,2013-05-30 23:46:00,
2013-05-30 19:51:00,85.9,63.9,30.00,WSW,249,0.0,0.0,48,0.00,CLR,CLR,0.44,WeatherDisplay:10.36,2013-05-30 23:51:00,
2013-05-30 19:56:00,85.5,63.6,30.01,WSW,249,0.0,0.0,48,0.00,CLR,CLR,0.44,WeatherDisplay:10.36,2013-05-30 23:56:00,
2013-05-30 20:01:00,85.3,63.4,30.01,WSW,249,0.0,0.0,48,0.00,CLR,CLR,0.44,WeatherDisplay:10.36,2013-05-31 00:01:00,
2013-05-30 20:07:00,84.9,63.0,30.01,WSW,249,0.0,0.0,48,0.00,CLR,CLR,0.44,WeatherDisplay:10.36,2013-05-31 00:07:00,
2013-05-30 20:12:00,84.5,62.1,30.01,WSW,249,0.0,0.0,47,0.00,CLR,CLR,0.44,WeatherDisplay:10.36,2013-05-31 00:12:00,
2013-05-30 20:17:00,84.3,63.1,30.01,WSW,249,0.0,0.0,49,0.00,CLR,CLR,0.44,WeatherDisplay:10.36,2013-05-31 00:17:00,
2013-05-30 20:22:00,84.0,61.6,30.01,WSW,249,1.2,0.0,47,0.00,CLR,CLR,0.44,WeatherDisplay:10.36,2013-05-31 00:22:00,
2013-05-30 20:27:00,83.8,62.6,30.01,WSW,249,0.0,0.0,49,0.00,CLR,CLR,0.44,WeatherDisplay:10.36,2013-05-31 00:27:00,
2013-05-30 20:32:00,83.4,62.8,30.01,WSW,249,0.0,0.0,50,0.00,CLR,CLR,0.44,WeatherDisplay:10.36,2013-05-31 00:32:00,
2013-05-30 20:37:00,83.2,63.7,30.01,WSW,249,0.0,0.0,52,0.00,CLR,CLR,0.44,WeatherDisplay:10.36,2013-05-31 00:37:00,
2013-05-30 20:42:00,82.8,62.8,30.00,WSW,249,0.0,0.0,51,0.00,CLR,CLR,0.44,WeatherDisplay:10.36,2013-05-31 00:42:00,
2013-05-30 20:48:00,82.4,62.5,30.00,WSW,249,0.0,0.0,51,0.00,CLR,CLR,0.44,WeatherDisplay:10.36,2013-05-31 00:48:00,
2013-05-30 20:53:00,82.2,62.8,30.00,WSW,249,0.0,0.0,52,0.00,CLR,CLR,0.44,WeatherDisplay:10.36,2013-05-31 00:53:00,
2013-05-30 20:58:00,81.8,62.5,30.00,WSW,249,0.0,0.0,52,0.00,CLR,CLR,0.44,WeatherDisplay:10.36,2013-05-31 00:58:00,
2013-05-30 21:03:00,81.4,63.2,30.01,WSW,249,0.0,0.0,54,0.00,CLR,CLR,0.44,WeatherDisplay:10.36,2013-05-31 01:03:00,
2013-05-30 21:08:00,81.2,63.0,30.01,WSW,249,0.0,0.0,54,0.00,CLR,CLR,0.44,WeatherDisplay:10.36,2013-05-31 01:08:00,
2013-05-30 21:13:00,80.9,62.7,30.01,WSW,249,0.0,0.0,54,0.00,CLR,CLR,0.44,WeatherDisplay:10.36,2013-05-31 01:13:00,
2013-05-30 21:18:00,80.5,62.3,30.01,WSW,249,0.0,0.0,54,0.00,CLR,CLR,0.44,WeatherDisplay:10.36,2013-05-31 01:18:00,
2013-05-30 21:23:00,80.3,62.7,30.01,WSW,249,0.0,0.0,55,0.00,CLR,CLR,0.44,WeatherDisplay:10.36,2013-05-31 01:23:00,
2013-05-30 21:28:00,79.9,62.8,30.01,WSW,249,0.0,0.0,56,0.00,CLR,CLR,0.44,WeatherDisplay:10.36,2013-05-31 01:28:00,
2013-05-30 21:33:00,79.6,62.5,30.01,WSW,249,0.0,0.0,56,0.00,CLR,CLR,0.44,WeatherDisplay:10.36,2013-05-31 01:33:00,
2013-05-30 21:38:00,79.4,62.8,30.01,WSW,249,0.0,0.0,57,0.00,CLR,CLR,0.44,WeatherDisplay:10.36,2013-05-31 01:38:00,
2013-05-30 21:43:00,79.2,62.7,30.01,WSW,249,0.0,0.0,57,0.00,CLR,CLR,0.44,WeatherDisplay:10.36,2013-05-31 01:43:00,
2013-05-30 21:48:00,78.8,62.3,30.01,WSW,249,0.0,0.0,57,0.00,CLR,CLR,0.44,WeatherDisplay:10.36,2013-05-31 01:48:00,
2013-05-30 21:53:00,78.6,62.6,30.02,WSW,249,0.0,0.0,58,0.00,CLR,CLR,0.44,WeatherDisplay:10.36,2013-05-31 01:53:00,
2013-05-30 21:58:00,78.5,63.0,30.02,WSW,249,0.0,0.0,59,0.00,CLR,CLR,0.44,WeatherDisplay:10.36,2013-05-31 01:58:00,
2013-05-30 22:04:00,78.3,62.8,30.02,WSW,249,0.0,0.0,59,0.00,CLR,CLR,0.44,WeatherDisplay:10.36,2013-05-31 02:04:00,
2013-05-30 22:09:00,77.9,63.4,30.02,WSW,249,0.0,0.0,61,0.00,CLR,CLR,0.44,WeatherDisplay:10.36,2013-05-31 02:09:00,
2013-05-30 22:14:00,77.6,63.5,30.02,WSW,249,0.0,0.0,62,0.00,CLR,CLR,0.44,WeatherDisplay:10.36,2013-05-31 02:14:00,
2013-05-30 22:19:00,77.4,63.8,30.02,WSW,249,0.0,0.0,63,0.00,CLR,CLR,0.44,WeatherDisplay:10.36,2013-05-31 02:19:00,
2013-05-30 22:24:00,77.0,64.3,30.03,WSW,249,0.0,0.0,65,0.00,CLR,CLR,0.44,WeatherDisplay:10.36,2013-05-31 02:24:00,
2013-05-30 22:29:00,76.7,64.5,30.03,WSW,249,0.0,0.0,66,0.00,CLR,CLR,0.44,WeatherDisplay:10.36,2013-05-31 02:29:00,
2013-05-30 22:35:00,76.5,64.3,30.03,WSW,249,0.0,0.0,66,0.00,CLR,CLR,0.44,WeatherDisplay:10.36,2013-05-31 02:35:00,
2013-05-30 22:40:00,76.3,64.5,30.03,WSW,249,0.0,0.0,67,0.00,CLR,CLR,0.44,WeatherDisplay:10.36,2013-05-31 02:40:00,
2013-05-30 22:45:00,76.1,64.8,30.03,WSW,249,0.0,0.0,68,0.00,CLR,CLR,0.44,WeatherDisplay:10.36,2013-05-31 02:45:00,
2013-05-30 22:50:00,75.8,64.9,30.03,WSW,249,0.0,0.0,69,0.00,CLR,CLR,0.44,WeatherDisplay:10.36,2013-05-31 02:50:00,
2013-05-30 22:55:00,75.6,64.7,30.03,WSW,249,0.0,0.0,69,0.00,CLR,CLR,0.44,WeatherDisplay:10.36,2013-05-31 02:55:00,
2013-05-30 23:00:00,75.4,64.1,30.03,WSW,249,0.0,0.0,68,0.00,CLR,CLR,0.44,WeatherDisplay:10.36,2013-05-31 03:00:00,
2013-05-30 23:05:00,75.3,64.4,30.03,WSW,249,0.0,0.0,69,0.00,CLR,CLR,0.44,WeatherDisplay:10.36,2013-05-31 03:05:00,
2013-05-30 23:10:00,74.7,65.1,30.03,WSW,249,0.0,0.0,72,0.00,CLR,CLR,0.44,WeatherDisplay:10.36,2013-05-31 03:10:00,
2013-05-30 23:15:00,74.4,64.4,30.03,WSW,249,0.0,0.0,71,0.00,CLR,CLR,0.44,WeatherDisplay:10.36,2013-05-31 03:15:00,
2013-05-30 23:20:00,74.2,63.8,30.03,WSW,249,0.0,0.0,70,0.00,CLR,CLR,0.44,WeatherDisplay:10.36,2013-05-31 03:20:00,
2013-05-30 23:25:00,74.2,63.4,30.03,WSW,249,0.0,0.0,69,0.00,CLR,CLR,0.44,WeatherDisplay:10.36,2013-05-31 03:25:00,
2013-05-30 23:30:00,74.2,63.4,30.03,WSW,249,0.0,0.0,69,0.00,CLR,CLR,0.44,WeatherDisplay:10.36,2013-05-31 03:30:00,
2013-05-30 23:35:00,74.0,64.4,30.03,WSW,249,0.0,0.0,72,0.00,CLR,CLR,0.44,WeatherDisplay:10.36,2013-05-31 03:35:00,
2013-05-30 23:40:00,73.9,64.7,30.03,WSW,249,0.0,0.0,73,0.00,CLR,CLR,0.44,WeatherDisplay:10.36,2013-05-31 03:40:00,
2013-05-30 23:46:00,73.7,64.5,30.03,WSW,249,0.0,0.0,73,0.00,CLR,CLR,0.44,WeatherDisplay:10.36,2013-05-31 03:46:00,
2013-05-30 23:51:00,73.5,64.7,30.03,WSW,249,0.0,0.0,74,0.00,CLR,CLR,0.44,WeatherDisplay:10.36,2013-05-31 03:51:00,
2013-05-30 23:56:00,73.2,64.4,30.03,WSW,249,0.0,0.0,74,0.00,CLR,CLR,0.44,WeatherDisplay:10.36,2013-05-31 03:56:00,